SCOUT A R/B, 2180

Orbit data source: Space-Track

SCOUT A R/B, 2180 is space debris in LEO originally from a launch on Thu, 19 May 1966 UTC launched from the Air Force Western Test Range (AFWTR). Debris objects in space refer to the collection of defunct objects orbiting the Earth. Examples of debris include non-operational satellites, rocket bodies, and fragments generated from explosions, collisions, or faulty payload assembly.

Loading next visibility...
Identifier
2180, 1966-041B
Orbit
LEO
Country
Flag of USUS
Related business
Manufacturer
ABL
Mission
Spacecraft
Bus & Motor
ALTAIR, Unknown motor
Mass
33 kg wet, 33 kg dry
Launch date (UTC)
1966-05-19 (60 years ago)
Launch vehicle
Unknown
Launch site
Air Force Western Test Range (AFWTR)
Object type
Payload
Rocket body
Debris
Shape & HBR
CYL, 0.8 m
Radar Cross Section
Medium (>0.1 m² and <1 m²)

Expand to show TLE details & history
Last TLE update: 19 hours ago

TLE from 19 hours ago
0 SCOUT A R/B
1 02180U 66041B   26207.63504204  .00000181  00000-0  11092-3 0  9995
2 02180  90.2215  83.5023 0077449 196.1289 163.7424 14.01115316 68790
Epoch: 2026-07-26T15:14Z
TLE epoch observation values (Epoch: 2026-07-26T15:14:27.632Z)
Latitude
-0.00007°
Longitude
-89.44298°
Altitude
947.048 km
Speed
7.351 km/s
True Right ascension
05h 34m 00s
True Declination
0° 00' 00"
Sunlit
Object was in daylight at epoch
Visualization orbit readout
Latitude
Unknown
Longitude
Unknown
Altitude
Unknown
Speed
Unknown
Apparent Right ascension
Unknown
Apparent Declination
Unknown
Sunlit
N/A
Visualization observer readout
Local Sidereal Time
23:11:50
Azimuth
Unknown
Elevation
Unknown
Doppler factor
Unknown
Orbital elements
Apogee altitude
943.178 km
Perigee altitude
830.644 km
Semi-major axis
7,265.048 km
Eccentricity
0.00774
Inclination
90.2215°
RAAN
83.5023°
Arg. of periapsis
196.1289°
True anomaly
163.98857°
Mean anomaly
163.7424°
Eccentric anomaly
163.86571°
Mean motion
3.50498 °/min
Orbital period
102.71 mins
BSTAR
0.00011092
Loading maneuver chart data...
Computing Atmospheric mass density...
Loading historical data...
Loading historical data...
Loading historical data...
Loading historical data...
Loading historical data...
Loading historical data...
Loading historical data...

Documentation

Showing up to 5 results
|